COSMOS 1693

Satellite information

Favourite Embed

Satellite Type and Status

PAYLOADIN ORBIT

Key statistics

Satellite COSMOS 1693 at a glance.

Uptime

14518

Days in orbit

Revolutions

≈ 12.6

Per day

Orbit

LEO

Low Earth Orbit

Inclination

82.6

Latest

Satellite identification and parameters

Extended collection of information and parameters for COSMOS 1693.

Object identification

Identified? True

Debris? False

Object name: COSMOS 1693

International designator: 1985-094D

Object number (NORAD): 16141

Object ID (CCSDS): 16141

Country: COMMONWEALTH OF INDEPENDENT STATES (CIS)

Current information (Y/N): Y

RCS size: MEDIUM

Orbital parameters

Period: 113.892 minutes

Inclination: 82.6109 deg

SMA: 7783.148 km

Apoapsis: 1417.429 km

Periapsis: 1392.597 km

RAAN: 112.0668 deg

Eccentricy: 0.0015952

Argument of periapsis: 98.4333 deg

Mean anomaly: 326.2477 deg

Mean motion: 12.64357364 rev/day

Mean motion (dot): -0.00000006 rev/day2

B* drag term: -0.000089079 1/REarth

Two-line elements (TLE)

Creation date: July 8, 2025, 2:27 a.m.

Reference frame: TEME

Reference center: EARTH

Epoch: July 7, 2025, 8:12 p.m. UTC

TLE line 0: 0 COSMOS 1693

TLE line 1: 1 16141U 85094D 25188.84206836 -.00000006 00000-0 -89079-4 0 9995

TLE line 2: 2 16141 82.6109 112.0668 0015952 98.4333 326.2477 12.64357364834026

Live tracking on map

Real-time ground track for satellite COSMOS 1693.

In-orbit conjunctions

There are no conjunctions computed for COSMOS 1693, at the moment. Check back to stay up to date, as we update our databases every day.

Go to all conjunctions

Associated space launch

Second generation store-dump military communications satellite

COSMOS 1693 was lifted into orbit during the mission ‘Tsiklon-3 | Strela-3 7 to 12’, on board a Tsiklon-3 space rocket.

The launch took place on Oct. 9, 1985, 9:35 p.m. from 32/1.

For more information about the launch, click the button.

Launch to space Tsiklon-3 | Strela-3 7 to 12
Tsiklon-3 | Strela-3 7 to 12

Agency: N/A

Status: Launch Successful

Launch date: Oct. 9, 1985, 9:35 p.m. UTC

Rocket: Tsiklon-3

Launch pad: 32/1

Location: Plesetsk Cosmodrome, Russian Federation

...

Latest news about this satellite

There are no fresh news available about this satellite. Check back as we update our databases every day.


Newsletter sign-up

Weekly statistics, charts and insights to help you stay on top of the space industry.